sat.trackr.live / text

‹ back to catalog

2025-234C

NORAD 66055 · 2025-234C

PAYLOAD ACTIVE UNKNOWN

§ Identity

Operator
Country
PRC
Launch date
2025-10-19
Launch site
JSC
Launch vehicle
Mass (kg)
RCS (m²)

External: N2YO · Heavens-Above · Gunter

§ Orbital elements

Epoch: 2026-09-20T21:57:53.636832Z

Period
94.43 min
Inclination
97.4168°
Eccentricity
0.0014578
Mean motion
15.24881790 rev/d
Perigee alt
481.1 km
Apogee alt
501.2 km
Semi-major
6,869.3 km
B*
1.1842e-4
RAAN
331.4133°
Arg perigee
175.2080°
Mean anomaly
184.9300°
Rev number
5,127

§ Raw data

2025-234C1 66055U 25234C   26263.91520413  .00002879  00000+0  11842-3 0  99962 66055  97.4168 331.4133 0014578 175.2080 184.9300 15.24881790 51270

JSON: /api/v1/satellites/66055 · /tle

For live sub-satellite position, see the globe view (requires WebGL).

§ Visibility from observer

Set your observer location to see the next 7 days of passes ≥ 10°. The values pass through the URL so the page stays shareable.

No JS? Fill the form by hand. The geolocation button needs JavaScript.